Tracking 25656 objects as of 22-May-2022
HD Live streaming from Space Station
objects crossing your sky now

USA 43

Track USA 43 now!
USA 43 is classified as:


NORAD ID: 20202
Int'l Code: 1989-069A
Perigee: 36,211.9 km
Apogee: 36,320.6 km
Inclination: 14.4 °
Period: 1,460.3 minutes
Semi major axis: 42637 km
RCS: Unknown
Launch date: September 4, 1989
Source: United States (US)
Launch site: AIR FORCE EASTERN TEST RANGE (AFETR)
aabbcc
Your satellite tracking list
Your tracking list is empty




NASA's NSSDC Master Catalog

Two Line Element Set (TLE):
1 20202U 89069A   22141.47523020 -.00000116  00000-0  00000-0 0  9990
2 20202  14.3599 347.1561 0012743 217.7856 312.0262  0.98609673 11139
Source of the keplerian elements: McCants